Temp
51 52 52 53 53 52 49 43 32 44 50 35 36 32 38 46 46 51 48 46 46 44 46 44 45 45 49 54 52 46 48 41 33 40 50 53 48 44 43 28 31 29 25 28
52 51 51 51 52 52 45 38 35 48 45 31 31 37 39 43 44 47 45 44 47 48 43 40 45 47 53 52 49 45 47 37 27 33 41 45 42 44 44 41 35 29 20 24
51 52 51 51 51 51 46 37 32 38 43 38 35 34 35 37 46 46 47 46 46 45 41 46 42 46 52 53 49 49 48 39 33 25 33 39 36 40 42 39 25 28 28 26
51 51 51 51 51 51 44 37 33 38 32 34 37 37 38 37 37 46 46 43 43 42 37 41 38 43 46 50 49 47 44 33 38 39 41 41 39 39 40 37 37 30 35 35
51 51 51 51 51 51 42 34 35 39 36 39 35 35 34 36 40 44 41 41 45 44 37 40 37 43 41 40 45 43 44 35 38 35 41 41 36 40 41 40 40 40 38 38
51 51 51 50 51 50 40 42 44 40 36 36 33 34 36 39 44 44 45 44 43 40 41 46 46 46 44 44 41 39 39 35 31 28 38 34 26 33 38 40 42 40 34 40
51 50 50 50 50 50 43 43 42 35 31 34 35 39 40 40 43 40 44 44 42 47 51 48 47 44 45 44 42 44 37 34 30 27 32 19 33 43 44 37 40 40 41 42
50 50 50 50 50 51 44 45 42 37 31 37 39 40 41 42 44 42 42 44 48 48 43 33 32 32 35 39 42 42 43 34 25 23 24 32 37 42 39 37 36 42 41 43
49 49 49 49 49 50 46 44 46 41 34 35 45 41 42 33 33 37 42 49 46 45 35 30 27 25 32 33 39 45 42 40 30 26 23 20 33 44 49 45 27 43 43 43
49 49 49 49 49 50 45 44 46 42 35 40 42 36 38 41 37 35 42 44 42 42 26 26 27 28 38 29 31 32 29 28 27 27 26 28 41 46 48 28 30 42 43 43
48 48 48 49 49 49 45 44 47 43 37 39 45 46 40 39 41 35 40 37 35 30 27 29 28 28 33 32 37 35 31 28 28 29 26 24 45 44 36 37 40 44 44 42
48 48 48 48 48 48 48 41 46 47 40 40 47 49 49 46 44 39 39 38 37 37 31 31 32 29 31 31 27 42 31 35 30 33 30 41 42 42 45 45 44 44 44 42
47 47 48 48 48 48 48 44 44 43 39 37 38 41 49 53 50 47 37 37 40 38 40 35 35 32 35 26 30 33 40 43 35 36 39 41 44 47 49 48 45 48 45 42
47 47 47 47 47 48 48 43 46 43 39 32 36 49 44 51 50 47 45 43 43 41 39 34 35 33 39 32 35 35 39 41 35 35 39 42 45 46 47 47 46 47 45 43
47 47 47 47 47 48 47 45 45 46 39 28 32 41 47 49 47 47 46 43 39 35 33 33 32 34 34 34 34 31 42 37 29 28 40 40 42 45 47 44 45 47 44 42
47 47 47 47 47 48 43 36 44 46 45 32 24 38 41 45 45 44 42 41 37 35 34 33 33 37 34 28 27 38 45 45 44 38 44 44 45 46 46 46 47 46 44 45
47 47 47 47 47 45 35 36 42 48 46 31 27 28 38 43 42 38 39 40 37 35 33 30 33 35 36 33 28 40 44 45 46 47 45 41 44 42 47 45 46 47 45 44
46 46 46 46 47 46 41 43 48 45 38 35 26 26 31 39 33 36 38 37 39 38 37 36 34 35 35 29 37 41 43 44 45 47 49 47 45 45 46 46 44 42 39 39
46 47 47 45 42 38 40 47 47 43 36 28 26 23 22 36 35 36 37 38 31 37 33 34 35 32 29 34 38 38 41 43 41 44 46 45 43 43 43 42 39 38 37 37
47 44 37 32 40 47 46 40 36 35 36 35 30 32 25 36 34 33 33 34 32 29 32 37 32 31 37 40 41 42 40 41 43 39 39 42 40 41 41 40 41 40 39 37
39 34 33 42 47 40 35 29 30 32 29 32 34 31 31 37 31 31 33 31 32 28 30 31 30 30 34 40 40 41 41 41 40 41 40 40 40 41 42 41 41 40 39 36
39 40 41 40 36 32 29 27 31 29 26 29 30 32 31 35 37 32 32 29 31 27 34 30 27 30 35 37 37 38 37 37 37 38 36 35 37 37 39 40 38 37 36 32
38 34 33 30 30 24 22 22 27 26 28 30 34 32 34 35 36 32 32 29 27 33 29 27 28 32 34 33 35 36 34 34 34 32 31 31 30 31 32 32 31 30 28 24
29 26 24 24 21 24 24 24 24 29 33 34 35 33 33 34 31 32 26 28 31 21 16 24 27 30 31 32 34 34 31 32 32 31 30 27 28 29 28 28 24 30 30 24
28 27 15 20 24 29 31 31 27 33 35 34 32 32 33 31 30 30 29 26 22 24 22 27 29 31 31 31 32 31 32 31 31 30 28 27 25 27 28 26 26 26 25 25
29 29 22 26 20 17 30 30 27 36 33 33 32 31 29 27 29 28 25 26 22 24 27 29 30 30 30 31 31 31 31 31 31 30 29 30 27 25 28 25 24 23 24 23
29 23 23 25 28 31 32 31 32 36 33 31 32 28 28 31 28 27 27 19 25 27 28 29 30 30 30 30 30 30 31 31 31 30 30 28 26 25 27 26 25 25 23 21
MSLP
1018.97 1019.03 1018.99 1018.96 1019.21 1019.67 1020.52 1021.03 1021.42 1020.35 1020.42 1021.88 1021.44 1020.29 1019.13 1017.78 1016.77 1015.89 1015.23 1014.72 1014.50 1013.96 1013.58 1013.26 1013.19 1012.49 1011.92 1011.82 1011.97 1012.43 1012.90 1013.41 1013.78 1013.51 1013.04 1013.05 1013.42 1014.00 1014.71 1015.79 1016.54 1016.91 1017.18 1014.66
1018.86 1018.95 1019.01 1019.07 1019.14 1019.39 1020.47 1021.23 1021.13 1020.32 1020.57 1020.82 1020.57 1019.77 1018.99 1018.33 1017.05 1016.04 1015.36 1014.87 1014.45 1014.21 1013.67 1013.70 1013.34 1012.65 1012.47 1012.23 1012.63 1013.00 1013.37 1014.15 1014.66 1014.48 1014.12 1013.82 1013.85 1014.36 1015.18 1016.01 1016.52 1017.00 1017.39 1015.49
1018.54 1018.81 1018.84 1019.15 1019.08 1019.31 1020.02 1021.50 1021.37 1020.62 1020.00 1019.93 1019.97 1019.85 1019.01 1018.21 1016.98 1016.31 1015.81 1015.17 1014.73 1014.56 1014.13 1013.81 1013.76 1013.42 1012.88 1012.85 1013.22 1013.64 1013.68 1014.76 1015.31 1015.41 1015.44 1015.40 1014.79 1014.44 1015.40 1016.12 1016.90 1016.71 1016.09 1015.77
1018.27 1018.50 1018.66 1018.91 1019.08 1019.18 1019.83 1020.88 1020.61 1020.19 1019.72 1019.34 1019.60 1019.45 1018.53 1017.70 1016.97 1015.90 1015.34 1015.32 1015.00 1014.89 1014.68 1013.77 1013.71 1013.75 1013.35 1013.49 1013.74 1013.90 1014.49 1015.48 1015.60 1015.66 1015.82 1015.67 1015.22 1014.91 1014.92 1015.39 1015.68 1016.14 1014.57 1014.79
1017.97 1018.15 1018.36 1018.65 1018.86 1019.01 1019.54 1019.93 1020.00 1019.64 1019.56 1019.30 1019.39 1019.13 1018.25 1017.47 1016.66 1016.14 1015.46 1015.06 1014.78 1014.83 1014.91 1014.32 1014.25 1014.22 1014.22 1014.32 1014.46 1014.51 1015.13 1015.52 1015.85 1015.88 1016.00 1015.85 1014.95 1015.12 1014.80 1014.34 1014.06 1014.49 1014.21 1012.87
1017.51 1017.78 1017.99 1018.31 1018.58 1019.01 1018.77 1019.20 1019.14 1019.15 1018.67 1018.60 1018.70 1017.88 1017.58 1016.88 1016.38 1015.92 1015.43 1015.30 1015.12 1014.91 1014.75 1014.73 1014.68 1014.47 1014.55 1014.73 1014.75 1015.29 1015.68 1016.11 1016.61 1016.69 1016.60 1016.29 1014.95 1014.26 1013.56 1012.91 1013.21 1013.40 1013.27 1012.66
1016.88 1017.23 1017.46 1017.68 1017.98 1018.22 1018.46 1018.49 1018.75 1019.13 1018.33 1018.22 1017.59 1016.95 1016.91 1016.73 1016.14 1015.57 1015.43 1015.45 1015.66 1015.18 1014.84 1015.00 1014.84 1015.03 1014.99 1014.92 1015.13 1015.41 1015.99 1016.54 1017.17 1017.43 1017.41 1016.03 1014.08 1013.36 1012.80 1012.70 1012.72 1012.44 1012.25 1011.98
1016.17 1016.59 1016.73 1017.13 1017.37 1017.48 1018.00 1017.78 1018.05 1018.18 1017.85 1017.55 1016.75 1016.41 1016.33 1016.13 1015.79 1015.69 1015.58 1015.31 1015.67 1015.32 1015.77 1016.13 1016.00 1015.76 1015.39 1014.88 1014.63 1014.88 1015.20 1016.34 1017.35 1017.68 1017.27 1015.10 1014.28 1012.58 1012.24 1012.24 1012.21 1011.88 1011.75 1011.60
1015.47 1015.90 1016.19 1016.47 1016.82 1017.17 1017.83 1017.47 1017.41 1017.88 1017.63 1016.39 1016.16 1015.95 1015.67 1015.53 1015.47 1015.71 1015.30 1015.03 1014.91 1015.54 1016.98 1017.06 1017.07 1016.70 1016.00 1015.20 1014.09 1013.51 1014.49 1015.53 1016.99 1017.63 1016.96 1015.31 1013.00 1011.82 1011.42 1011.66 1012.08 1011.84 1011.75 1011.72
1014.86 1015.30 1015.59 1015.89 1016.35 1016.77 1017.32 1017.34 1017.15 1017.24 1017.15 1016.39 1016.15 1015.72 1015.00 1014.84 1015.15 1015.21 1015.03 1015.11 1015.49 1015.87 1017.39 1017.82 1017.66 1017.15 1016.24 1015.50 1014.61 1014.50 1015.45 1016.23 1016.21 1016.41 1016.14 1014.54 1012.50 1011.93 1011.92 1012.13 1012.26 1011.62 1011.60 1011.64
1014.24 1014.63 1014.98 1015.37 1015.90 1016.32 1016.86 1016.82 1016.54 1016.68 1016.78 1016.15 1015.49 1015.23 1014.65 1014.20 1014.51 1015.36 1014.79 1015.33 1016.13 1017.05 1017.26 1017.81 1017.66 1017.14 1016.13 1015.40 1014.63 1014.15 1014.39 1015.06 1015.45 1015.86 1015.30 1013.99 1011.74 1011.82 1012.20 1011.90 1011.65 1011.32 1011.04 1011.23
1013.56 1014.01 1014.45 1014.92 1015.46 1015.92 1016.25 1016.48 1016.46 1016.75 1016.44 1016.23 1015.44 1014.44 1014.08 1013.98 1014.08 1014.43 1014.67 1014.82 1015.42 1015.90 1016.81 1017.20 1017.15 1016.78 1016.13 1015.39 1014.50 1013.21 1013.81 1013.54 1014.01 1014.03 1013.22 1012.42 1011.91 1011.86 1011.71 1011.58 1011.57 1011.15 1010.90 1011.25
1012.98 1013.45 1013.95 1014.50 1014.98 1015.38 1015.62 1015.59 1015.82 1016.21 1016.18 1016.07 1015.90 1014.22 1013.69 1013.63 1013.51 1013.68 1014.37 1015.00 1015.06 1015.49 1015.73 1016.66 1016.73 1016.85 1016.32 1015.49 1014.74 1014.04 1013.64 1013.28 1013.66 1013.45 1012.58 1012.08 1011.55 1011.10 1010.79 1010.60 1010.94 1010.88 1010.85 1011.31
1012.44 1012.87 1013.42 1013.98 1014.51 1014.84 1015.06 1015.02 1014.59 1015.47 1015.90 1015.96 1014.74 1013.41 1013.29 1012.84 1013.16 1013.60 1014.10 1014.34 1014.76 1015.23 1015.89 1016.61 1016.94 1016.76 1016.14 1015.54 1014.85 1014.30 1013.58 1013.52 1013.11 1012.92 1012.42 1011.80 1011.01 1010.48 1010.10 1010.04 1010.35 1010.74 1010.79 1011.18
1011.72 1012.27 1012.88 1013.45 1013.82 1014.12 1014.56 1014.81 1014.32 1014.68 1015.40 1015.69 1014.87 1013.64 1012.94 1012.91 1013.23 1013.52 1013.80 1014.40 1015.05 1015.74 1016.37 1016.80 1016.91 1016.41 1016.12 1015.54 1014.92 1013.59 1012.78 1012.30 1012.62 1012.12 1011.38 1011.38 1010.72 1010.00 1009.67 1009.79 1009.79 1010.02 1010.64 1011.46
1011.03 1011.74 1012.26 1012.81 1013.26 1013.74 1014.59 1014.28 1014.30 1014.48 1014.62 1015.04 1014.67 1013.86 1013.05 1012.79 1013.08 1013.47 1014.07 1014.58 1015.23 1015.74 1016.34 1016.66 1016.29 1015.77 1015.90 1015.90 1014.58 1012.70 1011.94 1011.49 1011.49 1011.36 1011.02 1010.74 1010.19 1009.75 1009.66 1009.65 1009.51 1009.80 1010.33 1010.94
1010.18 1010.82 1011.64 1012.37 1012.90 1013.31 1013.78 1013.22 1012.84 1013.65 1013.98 1014.80 1015.08 1014.44 1013.42 1013.02 1013.28 1013.90 1014.29 1014.58 1015.00 1015.37 1015.97 1015.96 1015.87 1015.77 1015.60 1015.31 1013.85 1012.01 1011.51 1011.13 1010.87 1010.55 1010.45 1010.33 1009.87 1009.52 1009.15 1009.29 1009.32 1009.54 1010.16 1010.84
1009.41 1010.24 1011.11 1012.06 1012.52 1013.23 1013.45 1012.99 1012.51 1013.28 1014.40 1014.91 1015.30 1015.03 1014.66 1013.83 1013.89 1014.26 1014.47 1014.61 1014.84 1015.03 1015.19 1015.24 1015.25 1015.33 1015.00 1014.41 1011.89 1011.54 1011.15 1010.92 1010.67 1010.19 1009.89 1009.71 1009.56 1009.44 1009.31 1009.10 1009.35 1009.94 1010.48 1011.25
1008.40 1008.96 1010.45 1011.76 1011.81 1012.20 1012.23 1012.34 1012.84 1013.36 1014.37 1015.02 1015.44 1015.52 1014.95 1014.23 1014.46 1014.58 1014.77 1014.72 1014.57 1014.77 1014.54 1014.44 1014.77 1014.20 1013.35 1011.80 1011.37 1011.29 1010.93 1010.60 1010.54 1010.23 1010.00 1009.89 1009.70 1009.54 1009.46 1009.43 1009.65 1010.10 1010.87 1011.49
1007.44 1009.12 1010.38 1011.08 1011.26 1011.51 1011.71 1012.83 1013.44 1014.16 1014.73 1015.05 1015.21 1014.83 1014.94 1014.65 1014.60 1014.63 1014.86 1014.69 1014.49 1014.23 1013.71 1013.68 1013.43 1012.36 1011.53 1011.13 1011.00 1011.15 1011.12 1010.92 1010.66 1010.59 1010.53 1010.30 1010.12 1009.96 1009.79 1009.86 1010.09 1010.41 1011.01 1011.77
1007.89 1009.36 1010.28 1010.98 1011.46 1012.40 1013.53 1014.08 1014.22 1014.55 1014.85 1014.72 1014.48 1014.42 1014.32 1014.34 1014.29 1014.35 1014.33 1013.91 1013.67 1013.05 1012.38 1012.63 1012.27 1011.70 1011.46 1011.31 1011.52 1011.56 1011.35 1011.26 1011.26 1011.28 1011.35 1011.12 1010.86 1010.53 1010.24 1010.35 1010.60 1010.97 1011.58 1012.28
1008.08 1009.28 1010.80 1011.83 1012.48 1013.44 1014.13 1014.49 1014.59 1014.51 1014.22 1013.89 1013.72 1013.53 1013.64 1013.74 1013.74 1013.92 1014.02 1013.48 1012.94 1011.78 1011.29 1011.84 1011.60 1012.06 1012.23 1012.10 1012.10 1012.10 1012.07 1012.08 1012.12 1012.19 1012.13 1012.00 1011.67 1011.47 1010.88 1010.93 1011.12 1011.51 1012.05 1012.60
1008.89 1010.11 1011.88 1012.49 1013.57 1013.98 1014.02 1013.90 1013.65 1013.51 1012.89 1012.72 1012.70 1012.86 1013.05 1013.42 1013.46 1013.55 1013.28 1012.47 1011.84 1011.65 1011.22 1011.50 1012.11 1012.45 1012.63 1012.82 1012.84 1012.83 1013.05 1013.08 1013.08 1013.07 1013.00 1012.88 1012.70 1012.28 1011.95 1011.90 1011.78 1012.05 1012.72 1013.40
1010.23 1011.44 1012.84 1013.10 1013.59 1013.33 1012.85 1012.51 1012.35 1012.06 1011.93 1011.89 1011.99 1012.25 1012.29 1012.40 1012.77 1012.69 1012.75 1012.03 1011.92 1011.94 1012.05 1012.27 1012.85 1013.18 1013.30 1013.46 1013.49 1013.53 1013.75 1013.81 1013.83 1013.79 1013.78 1013.72 1013.52 1013.32 1013.09 1012.93 1012.78 1012.82 1013.45 1013.99
1011.19 1011.81 1012.94 1013.21 1012.84 1012.56 1012.20 1012.02 1012.10 1011.98 1011.75 1011.64 1011.82 1011.66 1011.49 1011.58 1011.78 1011.89 1011.97 1012.11 1012.06 1012.00 1012.28 1012.87 1013.42 1013.69 1013.87 1014.07 1014.15 1014.23 1014.32 1014.35 1014.32 1014.32 1014.34 1014.38 1014.26 1014.09 1014.05 1013.91 1013.89 1014.03 1014.22 1014.53
1011.40 1012.22 1012.75 1012.90 1012.96 1012.80 1012.45 1012.24 1012.07 1011.65 1011.72 1011.64 1011.49 1010.93 1011.09 1011.22 1011.36 1011.52 1011.75 1012.23 1012.13 1012.61 1013.05 1013.59 1013.97 1014.26 1014.55 1014.59 1014.67 1014.75 1014.72 1014.67 1014.71 1014.78 1014.81 1014.83 1014.81 1014.78 1014.78 1014.72 1014.79 1014.95 1015.04 1015.34
1011.98 1012.64 1012.45 1012.57 1012.52 1012.27 1011.97 1011.95 1011.67 1011.33 1011.39 1011.04 1010.52 1010.42 1010.52 1011.00 1011.18 1011.51 1011.87 1012.50 1012.81 1013.20 1013.81 1014.30 1014.52 1014.82 1015.01 1015.03 1015.02 1015.03 1015.06 1015.13 1015.18 1015.24 1015.28 1015.26 1015.27 1015.35 1015.27 1015.38 1015.62 1015.49 1015.56 1015.66
Wind_Speed
1 2 6 4 12 14 7 2 2 3 7 4 3 12 5 5 11 5 6 3 6 5 3 1 3 4 2 5 1 4 1 4 2 7 4 3 5 6 5 4 4 3 4 13
5 3 2 5 6 17 6 1 3 1 4 8 8 7 12 8 5 6 4 4 4 2 4 1 4 1 1 2 3 3 1 1 2 6 6 5 2 3 4 3 1 5 5 8
8 7 4 4 5 15 6 2 2 2 6 3 6 3 11 6 8 19 11 4 1 1 3 4 3 2 2 4 3 4 7 3 6 7 3 1 7 11 3 2 2 4 8 9
9 9 7 6 4 17 4 3 4 3 4 7 8 3 4 16 8 8 9 5 5 5 4 2 4 4 4 3 8 5 6 6 5 5 5 6 14 17 17 12 8 7 18 15
12 12 10 7 6 13 3 5 3 4 2 4 12 12 4 16 11 9 6 6 7 7 7 5 1 3 2 2 2 3 2 5 4 5 5 10 18 14 16 18 18 13 12 22
14 14 13 9 9 12 2 2 2 1 3 5 8 11 16 9 11 8 4 3 5 3 8 6 6 3 4 4 3 1 1 3 2 4 4 6 11 9 16 17 10 8 13 15
15 15 15 12 13 13 3 3 2 3 2 4 11 8 14 20 16 7 5 4 5 6 5 2 3 1 5 4 5 5 4 4 3 3 2 12 6 5 11 8 8 11 8 8
17 16 15 14 13 13 5 2 4 3 4 6 10 16 11 14 15 8 6 7 17 6 4 4 3 4 3 6 10 13 14 5 2 2 5 13 12 14 4 7 7 3 6 4
17 17 17 14 11 15 5 3 2 3 2 7 8 9 14 6 5 3 5 1 5 7 3 3 4 3 3 4 5 4 9 9 6 3 4 5 7 3 4 4 5 3 4 5
17 17 17 16 13 13 5 3 6 3 2 4 1 4 7 5 4 3 4 7 2 5 2 2 2 3 3 4 4 3 3 2 12 9 7 7 8 10 2 2 8 3 3 5
18 18 18 15 14 12 8 2 9 6 4 4 4 4 4 2 3 3 4 4 2 1 3 4 4 4 4 4 9 4 7 6 5 6 7 9 4 1 6 6 4 7 4 3
18 18 18 15 14 13 13 6 7 7 4 3 5 5 4 2 3 5 1 5 4 5 4 3 2 3 3 5 4 2 3 6 5 8 7 4 1 4 4 4 5 7 3 4
18 18 19 17 15 15 14 5 6 5 2 3 4 6 7 4 3 3 4 2 5 4 4 4 2 5 1 3 2 4 5 3 1 2 3 4 8 9 8 6 11 13 5 6
18 19 19 16 16 19 17 5 4 5 2 1 6 1 3 5 4 4 4 3 3 5 2 3 2 3 3 3 2 3 5 4 6 5 10 8 9 7 7 8 7 8 6 7
19 20 19 17 17 20 11 6 2 4 3 4 4 5 5 5 6 6 5 4 3 2 2 2 4 2 0 2 2 4 4 6 4 6 7 4 7 6 5 8 10 8 9 7
21 23 19 17 17 18 4 3 5 6 5 3 2 4 3 2 6 6 5 4 3 3 4 3 3 3 3 2 4 6 5 3 5 4 4 7 9 7 5 5 6 7 10 10
21 22 20 19 18 9 3 3 4 12 2 3 3 4 4 3 3 2 2 3 3 4 3 3 3 3 5 3 8 3 6 9 11 14 6 5 5 5 5 7 9 8 7 9
21 20 22 19 15 14 3 3 9 7 4 2 2 4 3 3 1 2 2 2 1 1 3 2 3 2 3 6 12 10 10 9 11 4 6 5 4 5 5 3 3 6 7 9
26 28 23 12 2 3 3 13 12 3 5 4 3 3 4 2 2 1 1 1 1 1 4 4 5 4 7 10 8 6 10 3 2 4 2 1 3 4 5 3 4 6 7 8
37 15 3 3 2 15 6 7 3 3 2 2 2 2 2 2 3 3 3 2 3 4 6 4 5 7 4 7 6 2 0 3 4 4 5 5 4 4 2 1 2 6 7 6
4 3 3 7 9 4 3 3 2 2 1 3 4 7 5 3 4 3 3 2 3 4 5 6 4 4 2 5 5 4 4 6 7 5 5 5 3 5 4 4 5 6 8 6
7 8 6 3 3 3 4 4 4 4 6 4 5 6 4 3 2 3 3 4 4 6 6 5 3 3 3 5 6 6 7 6 6 6 6 7 7 6 3 4 5 6 6 6
5 6 5 3 1 3 7 7 4 4 4 5 4 3 4 3 3 3 3 4 4 2 2 2 2 3 4 5 4 4 6 7 6 6 6 6 5 7 5 1 2 5 6 2
5 4 5 4 4 4 5 4 4 3 1 5 4 3 4 3 5 3 4 5 1 3 1 2 2 2 4 4 5 5 5 6 7 6 5 5 5 5 6 6 3 5 6 4
4 4 3 4 3 2 1 1 2 2 2 3 2 2 2 2 3 3 3 2 4 4 2 2 3 4 4 3 3 4 4 4 5 4 4 5 4 4 5 6 4 5 5 5
3 3 3 1 4 4 1 2 3 2 2 1 2 3 3 3 3 5 5 4 4 2 2 3 3 5 3 3 3 3 3 3 4 4 4 4 4 4 3 3 5 4 4 4
2 2 1 3 2 2 1 2 2 1 3 3 2 4 4 3 3 5 1 2 1 4 4 2 4 3 2 2 3 3 4 4 4 4 5 3 3 2 2 5 4 3 3 2
Wind_Direction
193 1 14 342 186 146 116 142 192 284 131 156 207 224 206 251 280 266 253 241 234 224 12 104 228 261 91 6 45 108 240 138 205 248 244 215 201 210 188 139 268 237 162 270
236 226 285 8 228 150 119 184 224 135 130 203 215 228 238 267 293 249 221 249 204 235 158 23 309 42 271 75 58 133 330 27 15 336 338 18 2 73 92 235 118 206 150 271
247 238 255 276 324 173 100 124 223 265 197 196 195 183 237 240 232 257 272 276 60 303 215 153 222 293 89 85 100 169 91 150 182 200 215 259 288 282 305 182 169 261 231 275
249 233 245 250 271 186 110 167 203 239 210 209 212 202 250 225 240 230 185 218 202 195 276 148 190 247 296 141 179 154 126 222 228 193 222 264 266 278 295 275 233 209 281 253
239 235 233 237 218 194 135 155 184 176 215 203 191 233 216 254 261 244 232 226 200 199 210 214 194 36 36 262 44 145 192 238 217 272 266 260 271 273 271 262 270 257 257 278
236 234 235 221 217 206 132 156 258 230 214 177 197 219 224 255 251 235 283 296 263 206 245 258 204 178 161 178 120 112 119 177 121 254 227 314 290 217 243 251 250 235 256 259
237 231 232 220 229 213 160 177 159 184 255 234 218 220 213 228 255 238 215 1 338 320 130 79 53 221 237 227 236 176 177 145 132 227 28 265 255 266 260 251 244 260 266 244
230 228 230 219 227 227 233 192 173 163 241 219 242 217 222 234 238 254 186 178 230 163 31 65 19 335 328 237 221 215 202 158 173 194 224 289 302 281 236 193 265 286 253 257
227 224 226 222 228 232 229 208 136 149 222 211 256 220 224 217 216 223 208 144 147 87 87 92 162 228 261 268 271 250 184 197 162 160 230 243 239 280 360 126 270 303 317 297
225 219 220 224 227 237 200 254 181 171 208 265 117 254 223 177 180 229 193 177 129 63 116 110 160 230 261 254 245 182 139 159 202 215 236 273 252 271 308 167 238 249 244 276
219 214 214 222 225 240 209 215 194 176 223 266 225 278 255 120 174 186 247 71 358 84 104 142 216 211 230 231 241 226 173 171 196 201 218 258 231 291 179 226 246 239 236 239
219 216 214 220 227 237 222 221 188 189 251 243 289 221 252 194 181 174 280 168 160 166 124 190 175 228 256 210 260 251 194 197 180 190 203 251 354 190 253 221 280 284 230 215
217 215 216 224 231 238 231 216 172 176 262 349 273 222 204 273 241 144 119 300 152 164 175 166 189 240 205 243 254 326 15 31 223 320 256 261 252 252 241 212 238 257 225 168
218 216 210 226 240 241 230 224 154 166 165 155 264 283 175 205 181 167 164 145 81 111 109 125 165 241 200 256 273 224 197 249 202 213 257 281 280 259 259 247 228 245 175 166
218 206 213 236 246 229 221 209 162 170 136 203 252 285 224 192 191 198 160 150 115 97 85 109 210 220 285 281 279 237 206 210 176 234 243 232 257 251 249 237 225 206 163 148
216 209 227 233 243 209 163 173 199 192 216 116 26 283 285 190 159 173 164 161 126 128 142 195 227 254 127 249 249 235 254 226 196 245 246 236 254 263 248 252 208 196 184 172
217 211 221 227 222 193 179 203 167 164 102 76 358 338 300 341 147 126 134 153 174 134 189 208 176 205 182 231 252 194 262 288 298 289 254 262 241 245 267 251 271 186 168 159
231 211 204 211 185 127 178 273 150 112 96 80 90 272 344 7 85 120 331 107 156 176 204 186 185 182 183 236 249 254 262 278 275 297 229 225 240 272 287 291 147 158 157 150
251 232 182 150 142 152 135 102 86 80 109 132 125 171 240 32 76 93 117 176 223 144 210 196 180 174 221 223 247 259 253 226 277 336 286 245 257 256 289 261 154 153 158 153
115 111 99 101 105 118 48 21 51 34 36 39 216 157 246 144 168 193 140 199 209 217 221 157 217 239 241 208 222 185 92 16 15 3 312 265 251 234 237 231 206 171 163 150
78 81 77 108 83 58 50 88 87 131 213 197 215 194 176 192 174 189 201 209 217 235 188 197 204 230 97 80 82 29 38 61 46 47 40 16 8 264 196 190 173 164 156 173
122 103 86 79 72 76 117 165 162 202 223 197 191 206 187 154 160 148 194 235 210 250 144 191 211 99 48 43 31 36 31 39 47 28 17 2 0 341 319 218 168 166 168 144
50 62 75 86 52 139 172 179 195 194 211 185 174 159 148 147 181 201 206 253 236 288 219 176 86 100 58 31 8 55 38 29 28 14 13 5 356 1 3 32 1 124 121 102
64 93 121 167 182 220 196 191 188 218 225 168 171 149 183 171 171 189 207 235 305 336 339 184 121 91 53 28 14 39 20 18 12 9 3 0 14 17 13 15 15 128 139 138
90 82 145 196 228 244 304 38 96 223 266 130 136 192 182 148 178 188 198 217 233 211 181 102 103 81 54 22 23 35 23 13 14 9 19 2 20 47 35 16 42 66 86 106
62 93 54 298 65 301 249 250 246 191 171 108 187 193 167 178 193 203 192 198 220 132 82 88 91 75 41 16 55 29 18 36 33 37 40 28 26 43 52 29 50 62 97 104
118 309 177 160 188 244 262 201 242 328 162 221 193 192 189 134 197 179 47 166 85 107 97 83 72 69 25 34 68 58 45 38 37 41 36 20 10 34 40 56 13 42 69 94